Location: Unspecified
(47.5840°N, 122.3000°W)
Time: 14:47:53
(UTC+00:00)

Daily predictions for brighter satellites

Satellite Brightness Start Highest point End
(mag) Time Altitude Azimuth Time Altitude Azimuth Time Altitude Azimuth
Cosmos 2056 Rocket 4.2 12:01:15 10° NNW 12:06:21 56° ENE 12:11:30 10° SE
ATLAS 5 CENTAUR R/B 3.1 12:05:42 18° NW 12:06:30 19° NNW 12:09:38 10° NNE
Cosmos 44 3.2 12:10:55 43° WSW 12:12:10 60° NW 12:16:48 10° NNE
Meteor 1-26 Rocket 4.1 12:08:19 21° SSW 12:12:11 82° WNW 12:17:57 10° N
Cosmos 921 Rocket 3.9 12:12:33 32° WNW 12:12:59 33° WNW 12:17:04 10° N
Cosmos 1842 Rocket 3.5 12:12:11 34° SSW 12:13:59 69° W 12:18:22 10° N
GEOS 3 Rocket 3.8 12:10:18 10° SSE 12:15:20 49° WSW 12:20:28 10° NW
ATLAS CENTAUR R/B 2.2 12:14:46 34° W 12:15:54 41° NW 12:20:01 10° NNE
CZ-2C R/B 2.4 12:13:31 10° N 12:18:10 56° WNW 12:20:27 29° SW
Cosmos 1624 Rocket 4.3 12:14:00 10° NNW 12:19:21 71° ENE 12:24:38 10° SSE
Cosmos 2369 Rocket 2.9 12:17:41 28° W 12:19:37 37° NW 12:24:49 10° NNE
H-2A R/B 4.2 12:18:18 10° NNE 12:21:39 34° E 12:24:56 10° SSE
YAOGAN 6 2.4 12:18:10 10° NNE 12:21:42 87° WNW 12:23:33 27° SSW
IRS-1C 4.4 12:16:28 10° NNE 12:21:49 70° ESE 12:27:07 10° S
SAR-Lupe-2 3.8 12:20:09 10° NNE 12:23:44 70° ESE 12:26:37 15° S
Cosmos 1420 Rocket 4.2 12:18:52 10° NNW 12:24:04 74° ENE 12:29:15 10° SSE
Cosmos 2297 Rocket 3.9 12:19:00 10° NNW 12:24:10 35° NE 12:29:19 10° ESE
Cosmos 2154 Rocket 4.0 12:18:16 10° S 12:24:34 85° E 12:30:52 10° N
Helios 1A 3.5 12:24:32 34° WSW 12:25:05 36° W 12:28:54 10° NNW
CBERS-1 4.1 12:20:22 10° N 12:25:23 56° WNW 12:28:32 22° SW
Cosmos 1812 3.8 12:25:39 26° WNW 12:25:39 26° WNW 12:28:39 10° NNW
METEOR-M 4.2 12:21:26 10° N 12:26:41 58° WNW 12:30:20 20° SW
Orbus 7S? 4.2 12:23:21 10° NW 12:30:59 67° NNE 12:34:30 10° ESE
Cosmos 1515 4.2 12:28:34 10° S 12:32:12 58° E 12:35:52 10° NNE
NOSS 3-4 (A) 4.0 12:27:20 10° NW 12:34:14 82° NE 12:42:06 10° SE
NOSS 3-4 (C) 4.0 12:27:26 10° NW 12:34:20 81° NE 12:42:13 10° SE
Genesis I 4.2 12:31:20 13° S 12:34:34 43° ESE 12:38:18 10° NE
Cosmos 1500 Rocket 3.4 12:30:48 10° NNW 12:35:06 70° W 12:39:23 10° S
Nadezhda 3 Rocket 3.9 12:30:01 10° NNW 12:36:19 78° W 12:42:36 10° S
COSMO-SKYMED 1 4.5 12:32:31 10° SE 12:36:25 33° ENE 12:40:20 10° N
CZ-2D R/B 4.0 12:33:21 10° NNE 12:37:39 63° ESE 12:41:47 10° S
Cosmos 2227 Rocket 4.2 12:35:10 10° NNW 12:40:06 30° NE 12:45:00 10° ESE
Cosmos 1782 4.0 12:39:52 23° W 12:40:21 23° WNW 12:43:33 10° NNW
Cosmos 1805 Rocket 3.5 12:37:02 10° N 12:41:29 84° W 12:45:56 10° S
NOSS 3-3 (A) 4.1 12:38:42 21° WSW 12:42:29 57° NW 12:49:02 10° NE
NOSS 3-3 (C) 4.1 12:38:47 21° WSW 12:42:36 58° NW 12:49:09 10° NE
Cosmos 1242 Rocket 4.0 12:40:08 10° NW 12:41:52 19° WNW 12:41:52 19° WNW
Meteor 1-14 Rocket 4.1 12:38:05 10° NNW 12:43:36 68° W 12:49:06 10° S
SL-27 R/B 2.0 12:41:53 10° NNW 12:45:06 84° WSW 12:48:16 10° SSE
Cosmos 1610 Rocket 4.4 12:40:03 10° SSW 12:46:10 79° W 12:52:22 10° N
CZ-2C R/B 3.7 12:44:51 14° SW 12:48:21 25° W 12:52:54 10° NW
SeaSat 1 4.4 12:45:35 10° N 12:48:24 16° NW 12:50:52 11° WNW
CZ-2C R/B 3.3 12:48:27 10° N 12:52:56 43° WNW 12:57:19 11° SW
Cosmos 2074 Rocket 4.3 12:47:28 10° SSW 12:53:29 46° WNW 12:59:33 10° N
Cosmos 1743 2.8 12:52:32 10° N 12:56:18 76° E 13:00:01 10° SSE
Cosmos 1943 Rocket 4.4 12:56:59 10° NW 12:58:08 11° NNW 12:59:17 10° NNW
Meteor 2-6 Rocket 4.3 12:52:19 10° SSW 12:58:15 71° WNW 13:04:14 10° N
Envisat 3.3 12:53:31 10° N 12:58:24 49° WNW 13:03:16 10° SW
NOSS 2-1 (C) 4.1 12:54:42 10° NW 12:58:55 71° NE 13:04:50 10° SE
IRS-P3 4.1 12:54:57 10° N 13:00:15 68° WNW 13:05:31 10° SSW
SL-19 R/B 4.4 12:55:47 10° N 13:00:52 48° WNW 13:05:50 10° SW
COSMOS 2455 4.1 12:56:05 10° S 13:01:40 42° ESE 13:07:19 10° NE
NOSS 2-1 (D) 4.0 12:59:20 10° NW 13:03:29 78° NE 13:09:16 10° SE
Cosmos 2221 4.3 13:02:45 14° W 13:04:07 15° WNW 13:06:44 10° NNW
Cosmos 1536 3.0 13:01:19 10° N 13:05:16 73° E 13:09:14 10° SSE
Cosmos 1378 4.3 13:04:15 10° SSE 13:07:40 44° E 13:11:06 10° NNE
Cosmos 1437 Rocket 3.4 13:08:52 10° N 13:12:44 60° ENE 13:16:30 10° SSE
ALOS 4.2 13:11:19 10° NNW 13:13:09 12° NW 13:15:00 10° W
DELTA 2 DEB (DPAF) 4.0 13:11:43 10° S 13:16:05 68° WSW 13:20:27 10° NNW
Cosmos 192 4.4 13:12:38 10° NNW 13:17:36 87° ENE 13:22:30 10° SSE
Cosmos 2366 rocket 4.3 13:12:07 10° S 13:18:17 73° E 13:24:33 10° NNE
Cosmos 1607 4.2 13:17:44 10° SSW 13:23:50 72° ESE 13:30:03 10° NE
Cosmos 1151 Rocket 3.0 13:19:58 10° SSW 13:24:17 65° W 13:28:36 10° N
SKYMED 2 3.5 13:20:03 10° SSE 13:24:23 83° WSW 13:28:46 10° NNW
Lacrosse 5 3.2 13:19:58 10° WNW 13:24:29 30° N 13:29:00 10° NE
Helios 1B rocket 2.7 13:21:03 10° N 13:24:54 45° WNW 13:28:43 10° SW
Meteor 1-27 Rocket 3.9 13:22:39 10° S 13:28:29 87° ESE 13:34:15 10° NNE
Cosmos 1666 Rocket 3.5 13:24:20 10° NNW 13:28:38 71° W 13:32:56 10° S
USA 276 2.2 13:25:56 10° WSW 13:28:46 63° SSE 13:31:40 10° ENE
Cosmos 405 Rocket 2.5 13:25:57 10° S 13:29:34 87° WNW 13:33:13 10° N
Cosmos 1680 Rocket 4.4 13:25:18 10° WSW 13:29:58 32° NW 13:34:42 10° N
Cosmos 1656 3.8 13:25:03 10° SSW 13:30:28 80° ESE 13:35:58 10° NNE
Cosmos 1484 Rocket 4.2 13:30:47 10° NNW 13:33:30 19° WNW 13:36:14 10° WSW
USA 234 4.2 13:28:06 10° ENE 13:34:27 48° SE 13:40:45 10° SSW
SL-08 R/B 3.9 13:30:45 10° SSW 13:35:16 38° W 13:39:46 10° NNW
H-2A R/B 2.6 13:31:25 10° NNE 13:36:18 61° E 13:41:09 10° S
SL-8 Rocket 4.0 13:30:11 10° SSW 13:36:29 74° W 13:42:47 10° N
